User: anonymous   Login
Location: Newark
(8.3333°N, 39.1667°E)
Time: 04:42:02
(UTC+00:00)
Language:

Falcon 9 debris - Orbit

View from above orbital plane
View from above orbital plane
View from above satellite
View from above satellite

Ground track
Ground track

The orbit data is extracted from the following two-line orbital elements,

1 44298U 19029BR  19265.75678383  .00001172  00000-0  34600-4 0  9996
2 44298  53.0037 316.5027 0003727 323.3670  36.7080 15.43832440 20026
Epoch (UTC): 22 September 2019 18:09:46
Eccentricity: 0.0003727
inclination: 53.0037°
perigee height: 432 km
apogee height: 437 km
right ascension of ascending node: 316.5027°
argument of perigee: 323.3670°
revolutions per day: 15.43832440
mean anomaly at epoch: 36.7080°
orbit number at epoch: 2002

The dashed part of the orbit path shows where the satellite is in the earth's shadow,  

DLR